FW6534 Weather Reports


time (UTC)temp
C
wind
direction
speed
KPH
gust
KPH
rain 1hr
cm
rain 24hr
cm
rain mn
cm
humidity
%
barometer
mb
20260507113053 5 0 0.0 4.8 0.00 0.00 0.00 53 1020.0
20260507112551 5 360 0.0 3.2 0.00 0.00 0.00 54 1020.0
20260507112051 5 0 0.0 0.0 0.00 0.00 0.00 53 1019.9
20260507111553 5 0 0.0 0.0 0.00 0.00 0.00 53 1019.9
20260507111051 6 0 0.0 0.0 0.00 0.00 0.00 50 1019.8
20260507110552 6 0 0.0 0.0 0.00 0.00 0.00 51 1019.8
20260507110055 6 0 0.0 0.0 0.00 0.00 0.00 51 1019.8
20260507105551 6 0 0.0 0.0 0.00 0.00 0.00 51 1019.7
20260507105056 6 0 0.0 0.0 0.00 0.00 0.00 51 1019.7
20260507104556 6 0 0.0 0.0 0.00 0.00 0.00 51 1019.7
20260507104052 6 0 0.0 0.0 0.00 0.00 0.00 50 1019.8
20260507103551 6 0 0.0 0.0 0.00 0.00 0.00 50 1019.7
20260507103055 7 0 0.0 0.0 0.00 0.00 0.00 48 1019.8
20260507102555 7 0 0.0 0.0 0.00 0.00 0.00 49 1019.7
20260507102052 7 0 0.0 0.0 0.00 0.00 0.00 47 1019.7
20260507101554 7 0 0.0 0.0 0.00 0.00 0.00 48 1019.6
20260507101051 7 0 0.0 0.0 0.00 0.00 0.00 47 1019.6
20260507100551 8 0 0.0 0.0 0.00 0.00 0.00 47 1019.5
20260507100058 8 0 0.0 0.0 0.00 0.00 0.00 47 1019.5
20260507095553 8 0 0.0 0.0 0.00 0.00 0.00 45 1019.5
20260507095052 8 0 0.0 0.0 0.00 0.00 0.00 44 1019.6
20260507094555 8 0 0.0 0.0 0.00 0.00 0.00 44 1019.5
20260507094051 9 0 0.0 1.6 0.00 0.00 0.00 44 1019.5
20260507093551 9 0 0.0 1.6 0.00 0.00 0.00 43 1019.7
20260507093059 10 0 0.0 4.8 0.00 0.00 0.00 42 1019.7
20260507092551 10 0 1.6 6.4 0.00 0.00 0.00 42 1019.6
20260507092051 10 360 0.0 6.4 0.00 0.00 0.00 41 1019.5
20260507091558 10 360 1.6 6.4 0.00 0.00 0.00 40 1019.5
20260507091053 11 360 1.6 12.9 0.00 0.00 0.00 41 1019.5
20260507090552 11 360 6.4 12.9 0.00 0.00 0.00 42 1019.6
20260507090053 11 360 6.4 12.9 0.00 0.00 0.00 43 1019.5
20260507085552 10 360 4.8 8.0 0.00 0.00 0.00 43 1019.5
20260507085053 10 360 4.8 8.0 0.00 0.00 0.00 44 1019.5
20260507084551 10 360 4.8 8.0 0.00 0.00 0.00 44 1019.5
20260507084051 10 360 4.8 8.0 0.00 0.00 0.00 44 1019.6
20260507083552 10 360 4.8 8.0 0.00 0.00 0.00 44 1019.6
20260507083055 10 360 4.8 8.0 0.00 0.00 0.00 43 1019.7
20260507082555 10 360 4.8 12.9 0.00 0.00 0.00 42 1019.7
20260507082051 10 360 3.2 12.9 0.00 0.00 0.00 43 1019.7
20260507081559 10 360 6.4 12.9 0.00 0.00 0.00 43 1019.7
20260507081051 10 360 3.2 6.4 0.00 0.00 0.00 43 1019.6
20260507080554 10 360 3.2 6.4 0.00 0.00 0.00 43 1019.5
20260507080059 10 360 3.2 6.4 0.00 0.00 0.00 43 1019.5
20260507075552 10 360 3.2 4.8 0.00 0.00 0.00 42 1019.5
20260507075052 11 360 3.2 4.8 0.00 0.00 0.00 40 1019.4
20260507074553 11 360 1.6 4.8 0.00 0.00 0.00 38 1019.5
20260507074053 11 0 0.0 0.0 0.00 0.00 0.00 38 1019.5
20260507073551 12 0 0.0 1.6 0.00 0.00 0.00 38 1019.4
20260507073101 12 0 0.0 1.6 0.00 0.00 0.00 38 1019.4
20260507072551 12 0 0.0 3.2 0.00 0.00 0.00 38 1019.3
20260507072051 12 0 0.0 4.8 0.00 0.00 0.00 37 1019.3
20260507071558 12 0 0.0 4.8 0.00 0.00 0.00 37 1019.4
20260507071051 12 360 0.0 12.9 0.00 0.00 0.00 38 1019.3
20260507070552 13 0 1.6 12.9 0.00 0.00 0.00 38 1019.3
20260507065552 12 360 8.0 17.7 0.00 0.00 0.00 40 1019.1
20260507065052 12 360 6.4 14.5 0.00 0.00 0.00 41 1019.0
20260507064558 12 360 6.4 12.9 0.00 0.00 0.00 41 1018.9
20260507064052 12 360 8.0 12.9 0.00 0.00 0.00 41 1018.9
20260507063552 12 360 1.6 6.4 0.00 0.00 0.00 38 1018.9
20260507063107 12 360 0.0 4.8 0.00 0.00 0.00 38 1018.9
20260507062552 12 0 0.0 1.6 0.00 0.00 0.00 39 1018.9
20260507062052 12 0 0.0 3.2 0.00 0.00 0.00 39 1018.9
20260507061604 12 0 0.0 3.2 0.00 0.00 0.00 38 1018.7
20260507061052 12 0 0.0 1.6 0.00 0.00 0.00 38 1018.7
20260507060550 13 0 0.0 3.2 0.00 0.00 0.00 37 1018.7
20260507060058 13 0 0.0 4.8 0.00 0.00 0.00 37 1018.7
20260507055552 13 0 0.0 4.8 0.00 0.00 0.00 36 1018.7
20260507055052 13 360 0.0 8.0 0.00 0.00 0.00 36 1018.7
20260507054609 13 0 1.6 8.0 0.00 0.00 0.00 35 1018.7
20260507054052 14 360 4.8 8.0 0.00 0.00 0.00 35 1018.6
20260507053551 14 360 0.0 0.0 0.00 0.00 0.00 35 1018.5
20260507053101 14 0 0.0 4.8 0.00 0.00 0.00 34 1018.6
20260507052550 15 0 0.0 9.7 0.00 0.00 0.00 34 1018.4
20260507052050 15 360 3.2 14.5 0.00 0.00 0.00 34 1018.4
20260507051601 15 360 4.8 14.5 0.00 0.00 0.00 35 1018.3
20260507051050 14 360 8.0 14.5 0.00 0.00 0.00 35 1018.3
20260507050551 14 360 4.8 9.7 0.00 0.00 0.00 35 1018.3
20260507050104 15 360 4.8 9.7 0.00 0.00 0.00 34 1018.2
20260507045554 15 360 0.0 4.8 0.00 0.00 0.00 34 1018.2
20260507045051 15 360 1.6 4.8 0.00 0.00 0.00 34 1018.2
20260507044606 15 360 0.0 3.2 0.00 0.00 0.00 33 1018.2
20260507044051 15 0 0.0 4.8 0.00 0.00 0.00 32 1018.2
20260507043551 15 0 0.0 8.0 0.00 0.00 0.00 32 1018.1
20260507043104 16 360 1.6 8.0 0.00 0.00 0.00 32 1018.0
20260507042552 16 360 3.2 12.9 0.00 0.00 0.00 32 1017.8
20260507042050 16 360 3.2 12.9 0.00 0.00 0.00 32 1017.8
20260507041606 16 360 4.8 12.9 0.00 0.00 0.00 32 1017.6
20260507041050 16 360 1.6 9.7 0.00 0.00 0.00 31 1017.7
20260507040550 16 360 4.8 9.7 0.00 0.00 0.00 31 1017.6
20260507035550 17 0 3.2 8.0 0.00 0.00 0.00 31 1017.6
20260507035051 17 360 4.8 8.0 0.00 0.00 0.00 30 1017.4
20260507034608 17 360 4.8 8.0 0.00 0.00 0.00 30 1017.6
20260507034050 17 360 4.8 8.0 0.00 0.00 0.00 30 1017.3
20260507033554 17 360 1.6 12.9 0.00 0.00 0.00 30 1017.4
20260507033056 17 360 1.6 12.9 0.00 0.00 0.00 30 1017.2
20260507032555 17 360 4.8 12.9 0.00 0.00 0.00 29 1017.1
20260507032052 17 360 4.8 12.9 0.00 0.00 0.00 29 1016.9
20260507031558 18 360 4.8 9.7 0.00 0.00 0.00 29 1016.9
20260507031051 18 360 3.2 12.9 0.00 0.00 0.00 28 1016.8
20260507030553 18 360 4.8 12.9 0.00 0.00 0.00 28 1016.7
20260507025551 18 360 3.2 9.7 0.00 0.00 0.00 27 1016.5
20260507025052 18 360 3.2 9.7 0.00 0.00 0.00 27 1016.4
20260507024559 19 360 3.2 14.5 0.00 0.00 0.00 27 1016.5
20260507024050 19 360 6.4 17.7 0.00 0.00 0.00 26 1016.3
20260507023551 19 360 4.8 17.7 0.00 0.00 0.00 26 1016.2
20260507023053 20 360 4.8 17.7 0.00 0.00 0.00 26 1016.0
20260507022552 20 360 8.0 19.3 0.00 0.00 0.00 26 1016.1
20260507022052 20 360 8.0 19.3 0.00 0.00 0.00 25 1015.9
20260507021557 20 360 8.0 19.3 0.00 0.00 0.00 25 1015.9
20260507021051 21 360 6.4 19.3 0.00 0.00 0.00 24 1015.8
20260507020552 21 360 11.3 19.3 0.00 0.00 0.00 23 1015.8
20260507020059 22 360 9.7 16.1 0.00 0.00 0.00 23 1015.8
20260507015551 22 360 4.8 16.1 0.00 0.00 0.00 22 1015.8
20260507015052 23 360 4.8 12.9 0.00 0.00 0.00 21 1015.8
20260507014555 23 360 3.2 12.9 0.00 0.00 0.00 21 1015.7
20260507014051 23 360 6.4 12.9 0.00 0.00 0.00 20 1015.6
20260507013553 23 0 4.8 12.9 0.00 0.00 0.00 20 1015.6
20260507013101 23 360 4.8 12.9 0.00 0.00 0.00 20 1015.6
20260507012552 24 360 4.8 12.9 0.00 0.00 0.00 20 1015.6
20260507012052 24 360 4.8 12.9 0.00 0.00 0.00 19 1015.7
20260507011558 24 360 4.8 19.3 0.00 0.00 0.00 17 1015.5
20260507011052 25 360 6.4 19.3 0.00 0.00 0.00 15 1015.5
20260507010552 25 360 8.0 20.9 0.00 0.00 0.00 16 1015.5
20260507010057 25 360 6.4 22.5 0.00 0.00 0.00 13 1015.4
20260507005552 25 360 12.9 22.5 0.00 0.00 0.00 13 1015.5
20260507005051 25 360 9.7 19.3 0.00 0.00 0.00 13 1015.4
20260507004600 25 360 4.8 12.9 0.00 0.00 0.00 13 1015.3
20260507004052 25 360 4.8 20.9 0.00 0.00 0.00 13 1015.2
20260507003555 25 360 12.9 20.9 0.00 0.00 0.00 13 1015.3
20260507003100 25 360 12.9 20.9 0.00 0.00 0.00 12 1015.2
20260507002552 25 360 9.7 25.7 0.00 0.00 0.00 13 1015.2
20260507002051 25 360 11.3 25.7 0.00 0.00 0.00 14 1015.1
20260507001558 25 360 12.9 30.6 0.00 0.00 0.00 14 1014.9
20260507001050 25 360 17.7 30.6 0.00 0.00 0.00 14 1014.9
20260507000552 25 360 17.7 30.6 0.00 0.00 0.00 14 1014.9
20260507000055 25 360 12.9 30.6 0.00 0.00 0.00 14 1014.7
20260506235550 26 360 12.9 30.6 0.00 0.00 0.00 15 1014.7
20260506235052 26 360 17.7 27.4 0.00 0.00 0.00 15 1014.7
20260506234556 26 360 14.5 25.7 0.00 0.00 0.00 16 1014.7
20260506234051 26 360 12.9 35.4 0.00 0.00 0.00 15 1014.7
20260506233552 26 360 14.5 35.4 0.00 0.00 0.00 15 1014.7
20260506233100 25 360 17.7 29.0 0.00 0.00 0.00 15 1014.6
20260506232554 25 360 4.8 16.1 0.00 0.00 0.00 16 1014.4
20260506232052 25 360 1.6 16.1 0.00 0.00 0.00 16 1014.9
20260506231556 25 360 3.2 16.1 0.00 0.00 0.00 16 1014.9
20260506231052 24 360 8.0 16.1 0.00 0.00 0.00 17 1014.7
20260506230552 23 360 4.8 9.7 0.00 0.00 0.00 18 1014.9
20260506230100 23 360 4.8 14.5 0.00 0.00 0.00 18 1015.0
20260506225551 23 360 1.6 20.9 0.00 0.00 0.00 17 1014.9
20260506225051 23 360 6.4 20.9 0.00 0.00 0.00 17 1014.8
20260506224609 24 360 11.3 19.3 0.00 0.00 0.00 17 1014.8
20260506224051 25 360 8.0 17.7 0.00 0.00 0.00 17 1014.9
20260506223550 25 360 4.8 20.9 0.00 0.00 0.00 17 1015.0
20260506223104 26 360 8.0 22.5 0.00 0.00 0.00 16 1015.1
20260506222554 26 360 11.3 22.5 0.00 0.00 0.00 17 1015.1
20260506222052 26 360 14.5 27.4 0.00 0.00 0.00 17 1015.1
20260506221558 26 360 14.5 27.4 0.00 0.00 0.00 17 1015.1
20260506221052 26 360 12.9 25.7 0.00 0.00 0.00 17 1015.1
20260506220552 26 360 11.3 24.1 0.00 0.00 0.00 17 1015.2
20260506215552 25 0 12.9 30.6 0.00 0.00 0.00 17 1015.3
20260506215052 25 360 8.0 30.6 0.00 0.00 0.00 18 1015.4
20260506214610 25 360 12.9 38.6 0.00 0.00 0.00 18 1015.4
20260506214051 25 360 19.3 38.6 0.00 0.00 0.00 18 1015.6
20260506213551 25 360 14.5 37.0 0.00 0.00 0.00 18 1015.5
20260506213100 25 360 14.5 25.7 0.00 0.00 0.00 19 1015.7
20260506212552 25 360 3.2 25.7 0.00 0.00 0.00 19 1016.0
20260506212054 24 360 11.3 33.8 0.00 0.00 0.00 19 1016.0
20260506211557 24 360 9.7 33.8 0.00 0.00 0.00 19 1016.0
20260506211052 24 360 6.4 30.6 0.00 0.00 0.00 19 1016.0
20260506210551 23 360 14.5 33.8 0.00 0.00 0.00 19 1016.0
20260506210058 23 360 19.3 33.8 0.00 0.00 0.00 19 1016.0
20260506205551 24 360 19.3 32.2 0.00 0.00 0.00 19 1016.0
20260506205052 25 360 9.7 27.4 0.00 0.00 0.00 18 1016.0
20260506204628 25 360 17.7 27.4 0.00 0.00 0.00 18 1016.1
20260506204051 25 360 6.4 27.4 0.00 0.00 0.00 19 1016.1
20260506203552 24 360 14.5 27.4 0.00 0.00 0.00 19 1016.2
20260506203055 24 360 3.2 20.9 0.00 0.00 0.00 19 1016.3
20260506202552 23 360 11.3 20.9 0.00 0.00 0.00 20 1016.5
20260506202051 23 360 8.0 25.7 0.00 0.00 0.00 21 1016.4
20260506201555 23 360 12.9 32.2 0.00 0.00 0.00 21 1016.4
20260506201052 22 360 16.1 40.2 0.00 0.00 0.00 21 1016.4
20260506200551 22 360 19.3 40.2 0.00 0.00 0.00 21 1016.5
20260506200055 23 360 17.7 40.2 0.00 0.00 0.00 20 1016.6
20260506195551 23 360 14.5 33.8 0.00 0.00 0.00 21 1016.5
20260506195054 23 360 19.3 33.8 0.00 0.00 0.00 20 1016.7
20260506194605 22 360 19.3 33.8 0.00 0.00 0.00 21 1016.7
20260506194051 22 360 14.5 33.8 0.00 0.00 0.00 21 1016.8
20260506193551 22 360 16.1 33.8 0.00 0.00 0.00 21 1016.9
20260506193059 22 360 16.1 32.2 0.00 0.00 0.00 21 1017.1
20260506192551 22 360 6.4 27.4 0.00 0.00 0.00 22 1017.0
20260506192048 22 360 19.3 27.4 0.00 0.00 0.00 21 1017.1
20260506191555 22 360 9.7 29.0 0.00 0.00 0.00 22 1017.1
20260506191052 22 360 16.1 29.0 0.00 0.00 0.00 21 1017.2
20260506190550 22 360 6.4 27.4 0.00 0.00 0.00 21 1017.2
20260506190058 22 360 14.5 27.4 0.00 0.00 0.00 21 1017.2
20260506185552 22 360 8.0 17.7 0.00 0.00 0.00 21 1017.2
20260506185050 21 360 8.0 22.5 0.00 0.00 0.00 22 1017.4
20260506184603 21 360 9.7 22.5 0.00 0.00 0.00 22 1017.4
20260506184053 21 360 8.0 19.3 0.00 0.00 0.00 22 1017.4
20260506183555 21 360 3.2 19.3 0.00 0.00 0.00 22 1017.7
20260506183106 21 360 8.0 16.1 0.00 0.00 0.00 22 1017.6
20260506182551 21 360 3.2 14.5 0.00 0.00 0.00 22 1017.6
20260506182055 20 360 6.4 17.7 0.00 0.00 0.00 23 1017.6
20260506181559 20 360 6.4 17.7 0.00 0.00 0.00 23 1017.8
20260506181052 20 360 8.0 17.7 0.00 0.00 0.00 24 1017.9
20260506180552 20 360 4.8 20.9 0.00 0.00 0.00 23 1017.9
20260506180055 20 360 9.7 20.9 0.00 0.00 0.00 23 1017.9
20260506175551 20 360 8.0 17.7 0.00 0.00 0.00 24 1017.9
20260506175056 20 360 4.8 16.1 0.00 0.00 0.00 24 1018.0
20260506174556 19 360 4.8 19.3 0.00 0.00 0.00 24 1018.0
20260506174052 19 360 9.7 19.3 0.00 0.00 0.00 25 1017.9
20260506173551 18 360 4.8 14.5 0.00 0.00 0.00 25 1017.9
20260506173101 18 360 6.4 17.7 0.00 0.00 0.00 26 1018.0
20260506172553 18 0 6.4 17.7 0.00 0.00 0.00 26 1017.9
20260506172055 17 360 8.0 16.1 0.00 0.00 0.00 26 1018.0
20260506171559 17 360 6.4 14.5 0.00 0.00 0.00 27 1017.9
20260506171053 17 360 4.8 14.5 0.00 0.00 0.00 29 1017.9
20260506170554 16 360 8.0 14.5 0.00 0.00 0.00 29 1017.9
20260506170059 16 360 6.4 14.5 0.00 0.00 0.00 30 1017.9
20260506165552 16 0 3.2 12.9 0.00 0.00 0.00 31 1017.9
20260506165052 16 360 4.8 12.9 0.00 0.00 0.00 31 1018.0
20260506164600 16 360 4.8 14.5 0.00 0.00 0.00 31 1017.9
20260506164053 16 360 1.6 14.5 0.00 0.00 0.00 32 1017.9
20260506163553 15 360 6.4 12.9 0.00 0.00 0.00 32 1017.9
20260506163103 15 0 0.0 9.7 0.00 0.00 0.00 34 1018.1
20260506162551 15 360 3.2 9.7 0.00 0.00 0.00 34 1018.1
20260506162051 15 360 4.8 8.0 0.00 0.00 0.00 34 1018.1
20260506161605 14 360 1.6 9.7 0.00 0.00 0.00 36 1018.1
20260506161055 14 360 3.2 9.7 0.00 0.00 0.00 37 1018.1
20260506160551 13 360 3.2 9.7 0.00 0.00 0.00 37 1018.1
20260506160058 13 0 3.2 8.0 0.00 0.00 0.00 39 1018.1
20260506155552 13 360 3.2 8.0 0.00 0.00 0.00 39 1018.1
20260506155052 12 360 3.2 8.0 0.00 0.00 0.00 40 1018.1
20260506154613 12 360 1.6 9.7 0.00 0.00 0.00 41 1018.1
20260506154052 11 360 3.2 9.7 0.00 0.00 0.00 43 1017.9
20260506153552 11 360 1.6 6.4 0.00 0.00 0.00 44 1017.9
20260506153055 10 360 1.6 6.4 0.00 0.00 0.00 44 1017.9
20260506152552 10 0 1.6 6.4 0.00 0.00 0.00 45 1018.0
20260506152052 9 360 1.6 6.4 0.00 0.00 0.00 46 1017.9
20260506151557 9 0 1.6 6.4 0.00 0.00 0.00 46 1017.9
20260506151051 8 360 1.6 6.4 0.00 0.00 0.00 47 1017.9
20260506150551 8 360 1.6 4.8 0.00 0.00 0.00 49 1017.9
20260506150059 7 360 1.6 8.0 0.00 0.00 0.00 49 1017.8
20260506145554 7 0 1.6 8.0 0.00 0.00 0.00 50 1017.8
20260506145052 6 0 3.2 8.0 0.00 0.00 0.00 52 1017.8
20260506144602 6 0 1.6 6.4 0.00 0.00 0.00 53 1017.8
20260506144052 5 0 0.0 4.8 0.00 0.00 0.00 53 1017.9
20260506143551 5 360 1.6 6.4 0.00 0.00 0.00 54 1017.8
20260506143059 5 360 1.6 6.4 0.00 0.00 0.00 55 1017.8
20260506142552 4 360 3.2 6.4 0.00 0.00 0.00 56 1017.7
20260506142051 3 360 1.6 6.4 0.00 0.00 0.00 56 1017.8
20260506141603 3 360 3.2 6.4 0.00 0.00 0.00 57 1017.9
20260506141054 3 360 3.2 6.4 0.00 0.00 0.00 59 1017.8
20260506140552 2 360 1.6 6.4 0.00 0.00 0.00 59 1017.7
20260506140109 2 360 1.6 6.4 0.00 0.00 0.00 60 1017.6
20260506135552 2 360 3.2 6.4 0.00 0.00 0.00 62 1017.6
20260506135051 1 360 3.2 6.4 0.00 0.00 0.00 63 1017.6
20260506134602 1 360 0.0 3.2 0.00 0.00 0.00 64 1017.6
20260506134053 1 360 0.0 0.0 0.00 0.00 0.00 63 1017.5
20260506133551 1 0 0.0 3.2 0.00 0.00 0.00 62 1017.6
20260506133104 1 0 0.0 4.8 0.00 0.00 0.00 61 1017.5
20260506132551 1 360 1.6 4.8 0.00 0.00 0.00 61 1017.4
20260506132051 1 360 3.2 4.8 0.00 0.00 0.00 61 1017.4
20260506131557 1 0 0.0 0.0 0.00 0.00 0.00 60 1017.5
20260506131054 1 0 0.0 0.0 0.00 0.00 0.00 60 1017.4
20260506130551 1 0 0.0 0.0 0.00 0.00 0.00 60 1017.2
20260506130054 1 0 0.0 1.6 0.00 0.00 0.00 60 1017.3
20260506125552 1 0 0.0 3.2 0.00 0.00 0.00 59 1017.1
20260506125051 1 0 0.0 3.2 0.00 0.00 0.00 58 1016.9
20260506124557 1 0 0.0 3.2 0.00 0.00 0.00 58 1017.0
20260506124051 2 0 0.0 1.6 0.00 0.00 0.00 60 1016.9
20260506123554 2 0 0.0 1.6 0.00 0.00 0.00 59 1016.9
20260506123054 2 0 0.0 0.0 0.00 0.00 0.00 60 1016.8
20260506122551 2 0 0.0 1.6 0.00 0.00 0.00 59 1016.8
20260506122052 2 0 0.0 4.8 0.00 0.00 0.00 59 1016.7
20260506121553 2 0 0.0 4.8 0.00 0.00 0.00 58 1016.8
20260506121051 2 0 1.6 4.8 0.00 0.00 0.00 58 1016.8
20260506120552 2 360 0.0 6.4 0.00 0.00 0.00 57 1016.8
20260506120100 2 360 0.0 6.4 0.00 0.00 0.00 58 1016.8
20260506115553 2 360 3.2 6.4 0.00 0.00 0.00 61 1016.7
20260506115054 2 360 3.2 4.8 0.00 0.00 0.00 62 1016.6
20260506114602 2 360 0.0 0.0 0.00 0.00 0.00 60 1016.5
20260506114051 2 0 0.0 0.0 0.00 0.00 0.00 59 1016.4
20260506113552 2 0 0.0 0.0 0.00 0.00 0.00 59 1016.4